DELTA 1 DEB, 42087

Orbit data source: Space-Track

DELTA 1 DEB, 42087 is space debris in SSO originally from a launch on Sun, 15 Dec 1968 UTC launched from the Air Force Western Test Range (AFWTR). Debris objects in space refer to the collection of defunct objects orbiting the Earth. Examples of debris include non-operational satellites, rocket bodies, and fragments generated from explosions, collisions, or faulty payload assembly.

Loading next visibility...
Identifier
42087, 1968-114P
Orbit
SSO
Last TLE update
17 hours ago
Origin
Manufacturer
Aerojet
Mission
Spacecraft
Bus & Motor
Unknown
Mass
Unknown
Launch date (UTC)
1968-12-15 (57 years ago)
Launch vehicle
Unknown
Launch site
Air Force Western Test Range (AFWTR)
Object type
Payload
Rocket body
Debris
Shape & HBR
Unknown
Radar Cross Section
Small (<0.1 m²)

Expand to show TLE details & history

TLE from 17 hours ago
0 DELTA 1 DEB
1 42087U 68114P   25181.70721363  .00000360  00000-0  30057-2 0  9993
2 42087 101.4192 150.9766 0192405 284.4137  73.5643 12.35228326522758
Epoch: 2025-06-30T16:58Z
TLE epoch observation values (Epoch: 2025-06-30T16:58:23.257Z)
Latitude
-0.00002°
Longitude
-22.63346°
Altitude
1,489.135 km
Speed
7.137 km/s
True Right ascension
10h 03m 54s
True Declination
0° 00' 00"
Sunlit
Object was in daylight at epoch
Visualization orbit readout
Latitude
-12.82941°
Longitude
155.38698°
Altitude
1,529.59 km
Speed
7.102 km/s
Apparent Right ascension
23h 05m 07s
Apparent Declination
-62° 27' 45"
Sunlit
Object is in full shadow
Visualization observer readout
Local Sidereal Time
21:13:34
Azimuth
167.076° S
Elevation
-14.806°
Doppler factor
1
Orbital elements
Apogee altitude
1,676.491 km
Perigee altitude
1,372.392 km
Semi-major axis
7,902.579 km
Eccentricity
0.01924
Inclination
101.4192°
RAAN
150.9766°
Arg. of periapsis
284.4137°
True anomaly
Unknown
Mean anomaly
73.5643°
Eccentric anomaly
Unknown
Mean motion
3.08951 °/min
Orbital period
116.52 mins
BSTAR
0.0030057
Loading maneuver chart data...
Loading SW <> Apogee altitude chart data...
Loading historical data...
Loading historical data...
Loading historical data...
Loading historical data...
Loading historical data...
Loading historical data...
Loading historical data...

DELTA 1 DEB Visibility forecast

Observer location: undefined°, undefined°

Span
Click to sort rows by Start time (UTC) header in descending order
Start Az.
Max El. time (UTC)
Max El. Az.
Max El.
End time (UTC)
End Az.
17 mins2025-07-01 11:05:16.419Z15.305° NNE2025-07-01 11:14:16.419Z260.258° W44.77°2025-07-01 11:22:16.419Z203.389° SW
11 mins2025-07-01 13:02:16.419Z345.358° N2025-07-01 13:07:16.419Z307.811° NW20.4°2025-07-01 13:13:16.419Z265.936° W
14 mins2025-07-01 20:20:16.419Z111.955° ESE2025-07-01 20:26:16.419Z62.587° ENE28.934°2025-07-01 20:34:16.419Z359.428° N
16 mins2025-07-01 22:13:16.419Z179.434° S2025-07-01 22:20:16.419Z249.053° W41.46°2025-07-01 22:29:16.419Z336.554° NNW
|